Location: Byszew
(52.1813°N, 19.2693°E)
Time: 08:16:11
(UTC+00:00)

CAS-4B - Pass Details

Date: 07 July 2022
Orbit: 522 x 536 km, 43.0° (Epoch: 07 August)

Event Time Altitude Azimuth Distance (km) Brightness Sun altitude
Exits shadow 23:45:53 21° 161° (SSE) 1,219 ? -14.3°
Drops below altitude 10° 23:48:22 10° 124° (ESE) 1,757 ? -14.2°
Sets 23:50:57 0° 108° (ESE) 2,648 ? -14.1°
